Regional Weather Roundup
Issued by NWS

Home | Current Version | Previous Version | Graphics & Text | Print | Product List | Glossary On
Versions: 1 2 3 4 5 6 7 8 9 10 11 12 13 14 15 16 17 18 19 20 21 22 23 24 25 26 27 28 29 30 31 32 33 34 35 36 37 38 39 40 41 42 43 44 45 46 47 48 49 50
000
ASUS43 KLSX 221310
RWRMO

WEATHER SUMMARY FOR MISSOURI
NATIONAL WEATHER SERVICE SPRINGFIELD MO
800 AM CDT THU JUN 22 2017

NOTE: "FAIR" INDICATES FEW OR NO CLOUDS BELOW 12,000 FEET WITH NO
       SIGNIFICANT WEATHER AND/OR OBSTRUCTIONS TO VISIBILITY.
       CURRENT SKY AND/OR WEATHER CONDITIONS ARE NOT AVAILABLE FOR
       CHILLICOTHE AND FARMINGTON.

MOZ001>031-035>038-043-044-053-054-221400-
...NORTHERN AND WESTERN MISSOURI...

CITY           SKY/WX    TMP DP  RH WIND       PRES   REMARKS
KANSAS CTY INT SUNNY     75  67  76 S12       29.78S
KANSAS C DTWN  SUNNY     77  67  71 S9        29.78S
LEE`S SUMMIT   SUNNY     74  68  81 S15       29.79F
ST JOSEPH      CLOUDY    76  67  73 S12       29.75F
CHILLICOTHE      N/A     74  68  81 S9        29.81F
KIRKSVILLE     SUNNY     75  68  78 S13       29.83F

$$
MOZ066>068-077>081-088>096-101>105-221400-
...SOUTHWEST MISSOURI...

CITY           SKY/WX    TMP DP  RH WIND       PRES   REMARKS
SPRINGFIELD    CLOUDY    73  71  93 SE9       29.85R
JOPLIN         PTSUNNY   75  70  84 SE10      29.82F
BRANSON        CLOUDY    72  72 100 SE7       29.86S FOG

$$
MOZ032>034-039>042-045>050-055>058-069>072-221400-
...CENTRAL MISSOURI...

CITY           SKY/WX    TMP DP  RH WIND       PRES   REMARKS
COLUMBIA       PTSUNNY   74  70  87 S9        29.86S
JEFFERSON CITY PTSUNNY   75  68  78 SE10      29.85F
ROLLA          CLOUDY    72  70  93 S9        29.87R
SEDALIA        SUNNY     75  71  87 S10       29.84F
WHITEMAN AFB   MOSUNNY   74  74 100 S13       29.81F
WARRENSBURG    SUNNY     72  66  83 SE9       29.81F
OSAGE BEACH    PTSUNNY   72  69  90 SE5       29.86F

$$
MOZ051-052-059>065-221400-
...EAST CENTRAL MISSOURI...

CITY           SKY/WX    TMP DP  RH WIND       PRES   REMARKS
ST LOUIS INTL  PTSUNNY   79  69  71 S16       29.89R
SPIRIT OF STL  PTSUNNY   76  71  85 S7        29.87S
ST CHARLES     PTSUNNY   78  71  79 S6        29.87S

$$
MOZ072>076-082>087-097>100-106>115-221400-
...SOUTH CENTRAL AND SOUTHEAST MISSOURI...

CITY           SKY/WX    TMP DP  RH WIND       PRES   REMARKS
CAPE GIRARDEAU PTSUNNY   74  69  85 SE14      29.90S
FARMINGTON     CLOUDY    73  70  90 S9        29.91S
POPLAR BLUFF   CLOUDY    74  72  93 E7        29.88S
WEST PLAINS    CLOUDY    72  71  97 SE8       29.89S FOG

$$




USA.gov is the U.S. government's official web portal to all federal, state and local government web resources and services.